Glendale Luke AFB, AZ

10:13 AM MST on November 12, 2019 (GMT -0700)
Luke Air Force Base

Weather History for KLUF - October, 2019

Change the Weather History Date:

Wednesday, October 23, 2019

  Actual Average Record
Temperature  
Mean Temperature 72 °F -  
Max Temperature 88 °F 86 °F 98 °F (1933)
Min Temperature 56 °F 51 °F 38 °F (1920)
Cooling Degree Days 7    
Growing Degree Days 22 (Base 50)    
Moisture  
Dew Point 34 °F    
Average Humidity 26    
Maximum Humidity 46    
Minimum Humidity 12    
Precipitation  
Precipitation 0.00 in - - ()
Sea Level Pressure  
Sea Level Pressure 29.84 in    
Wind  
Wind Speed 4 mph (West)    
Max Wind Speed 10 mph    
Max Gust Speed -    
Visibility 10 miles    
Events      
Averages and records for this station are not official NWS values.
T = Trace of Precipitation, MM = Missing Value Source: NWS Daily Summary

Daily Weather History Graph

Daily Weather History Graph

Search for Another Location

Airport or City:

Astronomy

Oct. 23, 2019 Rise Set
Actual Time 6:40 AM MST 5:46 PM MST
Civil Twilight 6:15 AM MST 6:11 PM MST
Nautical Twilight 5:46 AM MST 6:41 PM MST
Astronomical Twilight 5:17 AM MST 7:09 PM MST
Moon 1:24 AM MST (10/23) 3:20 PM MST (10/23)
Length of Visible Light 11h 56m
Length of Day
11h 06m
Waning Crescent, 25% of the Moon is Illuminated
Oct 23
Waning Crescent
Oct 27
New
Nov 4
First Quarter
Nov 12
Full
Nov 19
Last Quarter

Hourly Weather History & Observations

Time (MST) Temp. Dew Point Humidity Pressure Visibility Wind Dir Wind Speed Gust Speed Precip Events Conditions
12:56 AM 68.5 °F 31.3 °F 25% 29.88 in 10.0 mi North 4.6 mph - N/A   Clear
1:58 AM 64.0 °F 32.7 °F 31% 29.88 in 10.0 mi Calm Calm - N/A   Clear
2:58 AM 61.2 °F 36.0 °F 39% 29.88 in 10.0 mi NE 3.5 mph - N/A   Clear
3:58 AM 59.2 °F 33.6 °F 38% 29.86 in 10.0 mi NNE 10.4 mph - N/A   Clear
4:58 AM 59.5 °F 34.0 °F 38% 29.88 in 10.0 mi Calm Calm - N/A   Clear
6:58 AM 56.3 °F 35.8 °F 46% 29.88 in 10.0 mi NNW 5.8 mph - N/A   Clear
7:58 AM 63.0 °F 36.3 °F 37% 29.91 in 10.0 mi NE 3.5 mph - N/A   Clear
8:58 AM 69.8 °F 32.4 °F 25% 29.93 in 10.0 mi Calm Calm - N/A   Clear
9:58 AM 74.1 °F 32.9 °F 22% 29.91 in 10.0 mi Calm Calm - N/A   Clear
10:58 AM 77.9 °F 32.4 °F 19% 29.89 in 10.0 mi SSW 3.5 mph - N/A   Clear
11:58 AM 81.5 °F 32.5 °F 17% 29.87 in 10.0 mi Calm Calm - N/A   Clear
12:58 PM 83.8 °F 31.3 °F 15% 29.87 in 10.0 mi SSE 4.6 mph - N/A   Clear
1:58 PM 86.7 °F 30.0 °F 13% 29.80 in 10.0 mi South 4.6 mph - N/A   Clear
2:58 PM 87.3 °F 28.4 °F 12% 29.79 in 10.0 mi South 4.6 mph - N/A   Clear
3:58 PM 88.5 °F 29.5 °F 12% 29.78 in 10.0 mi SSW 3.5 mph - N/A   Clear
4:58 PM 87.4 °F 32.4 °F 14% 29.76 in 10.0 mi SSW 10.4 mph - N/A   Clear
5:58 PM 83.8 °F 34.3 °F 17% 29.77 in 10.0 mi SSW 6.9 mph - N/A   Clear
6:58 PM 77.5 °F 37.9 °F 24% 29.78 in 10.0 mi SW 8.1 mph - N/A   Clear
7:58 PM 75.6 °F 37.2 °F 25% 29.79 in 10.0 mi WSW 8.1 mph - N/A   Clear
8:58 PM 70.9 °F 38.7 °F 31% 29.79 in 10.0 mi NNW 4.6 mph - N/A   Clear
9:58 PM 70.7 °F 37.8 °F 30% 29.80 in 10.0 mi NNW 3.5 mph - N/A   Clear
10:58 PM 67.3 °F 39.4 °F 36% 29.81 in 10.0 mi North 6.9 mph - N/A   Clear
11:58 PM 63.7 °F 37.6 °F 38% 29.81 in 10.0 mi NW 5.8 mph - N/A   Clear